This demonstration page uses our WeatherBlox Daily Observations layout. Learn more.

Left ArrowRight Arrow

Hourly Observations for December 17, 2016

Temp ( °F °C ) Dew Point ( °F °C ) Humidity (%) Winds ( mph kmh ) Pressure ( in mb ) Visibility ( mi km ) Precip ( " mm )
12:00 am 00:00 Cloudy 28 -2 27 -3 93 93 S 7 11 29.77 1008 7 11 N/A
12:19 am 00:19 Cloudy 30 -1 27 -3 86 86 S 6 9 29.77 1008 7 11 N/A
12:39 am 00:39 Cloudy 30 -1 27 -3 86 86 SSE 5 7 29.77 1008 5 8 N/A
1:00 am 01:00 Cloudy 30 -1 27 -3 86 86 SSE 7 11 29.74 1007 4 6 N/A
1:19 am 01:19 Cloudy 30 -1 28 -2 93 93 SSE 7 11 29.74 1007 4 6 N/A
1:39 am 01:39 Cloudy 30 -1 28 -2 93 93 SSE 5 7 29.74 1007 4 6 N/A
2:00 am 02:00 Cloudy 30 -1 28 -2 93 93 SSE 7 11 29.71 1006 3 4 N/A
2:19 am 02:19 Cloudy 30 -1 30 -1 100 100 SSE 7 11 29.71 1006 3 4 N/A
2:39 am 02:39 Cloudy 30 -1 30 -1 100 100 SSE 7 11 29.71 1006 3 4 N/A
3:00 am 03:00 Cloudy 32 undefined 30 -1 93 93 SSE 7 11 29.68 1005 3 5 N/A
3:19 am 03:19 Cloudy 32 undefined 30 -1 93 93 S 7 11 29.68 1005 4 6 N/A
3:39 am 03:39 Cloudy 32 undefined 30 -1 93 93 S 6 9 29.71 1006 4 6 N/A
4:00 am 04:00 Cloudy 32 undefined 32 undefined 100 100 S 6 9 29.68 1005 3 4 N/A
4:19 am 04:19 Cloudy 32 undefined 32 undefined 100 100 S 7 11 29.68 1005 3 5 N/A
4:39 am 04:39 Cloudy 32 undefined 32 undefined 100 100 S 5 7 29.68 1005 3 5 N/A
5:00 am 05:00 Cloudy 32 undefined 32 undefined 100 100 S 6 9 29.68 1005 3 4 N/A
5:19 am 05:19 Cloudy 32 undefined 32 undefined 100 100 S 6 9 29.65 1004 3 4 N/A
5:39 am 05:39 Cloudy 32 undefined 32 undefined 100 100 S 5 7 29.65 1004 3 5 N/A
6:00 am 06:00 Cloudy 32 undefined 32 undefined 100 100 S 5 7 29.65 1004 3 4 N/A
6:19 am 06:19 Cloudy 34 1 32 undefined 93 93 S 6 9 29.65 1004 2 3 N/A
6:40 am 06:40 Cloudy 34 1 32 undefined 93 93 N N/A 29.65 1004 2 3 N/A
7:00 am 07:00 Cloudy 34 1 32 undefined 93 93 SSE 3 6 29.65 1004 2 3 N/A
7:19 am 07:19 Cloudy 34 1 32 undefined 93 93 N N/A 29.65 1004 2 2 N/A
7:40 am 07:40 Cloudy 34 1 32 undefined 93 93 SSE 3 6 29.65 1004 2 2 N/A
8:00 am 08:00 Cloudy 32 undefined 32 undefined 100 100 N 6 9 29.68 1005 2 2 N/A
8:19 am 08:19 Cloudy 32 undefined 32 undefined 100 100 N 3 6 29.68 1005 2 2 N/A
8:39 am 08:39 Cloudy 32 undefined 32 undefined 100 100 NNE 3 6 29.68 1005 1 2 N/A
9:00 am 09:00 Cloudy 32 undefined 32 undefined 100 100 N N/A 29.68 1005 1 1 N/A
9:19 am 09:19 Cloudy 32 undefined 32 undefined 100 100 N N/A 29.68 1005 1 1 N/A
9:39 am 09:39 Cloudy 32 undefined 32 undefined 100 100 N 5 7 29.68 1005 1 2 N/A
9:59 am 09:59 Cloudy 32 undefined 32 undefined 100 100 N 5 7 29.68 1005 1 1 N/A
10:19 am 10:19 Cloudy 32 undefined 32 undefined 100 100 N 3 6 29.68 1005 2 2 N/A
10:40 am 10:40 Cloudy 32 undefined 32 undefined 100 100 NNE 3 6 29.68 1005 1 1 N/A
10:59 am 10:59 Cloudy 32 undefined 32 undefined 100 100 N N/A 29.68 1005 1 1 N/A
11:19 am 11:19 Cloudy 34 1 32 undefined 93 93 N N/A 29.68 1005 2 2 N/A
11:40 am 11:40 Cloudy 34 1 32 undefined 93 93 N N/A 29.68 1005 1 2 N/A
11:59 am 11:59 Cloudy 32 undefined 32 undefined 100 100 N N/A 29.68 1005 1 1 N/A
12:19 pm 12:19 Cloudy 34 1 32 undefined 93 93 N N/A 29.65 1004 1 2 N/A
12:40 pm 12:40 Cloudy 34 1 34 1 100 100 N N/A 29.65 1004 1 2 N/A
12:59 pm 12:59 Cloudy 34 1 34 1 100 100 N N/A 29.65 1004 2 2 N/A
1:19 pm 13:19 Cloudy 34 1 34 1 100 100 N N/A 29.65 1004 1 1 N/A
1:40 pm 13:40 Cloudy 34 1 34 1 100 100 N 3 6 29.65 1004 1 1 N/A
1:59 pm 13:59 Cloudy 34 1 34 1 100 100 E 3 6 29.65 1004 1 1 N/A
2:19 pm 14:19 Cloudy 34 1 34 1 100 100 NW 6 9 29.65 1004 1 1 N/A
2:40 pm 14:40 Cloudy 34 1 34 1 100 100 NNW 3 6 29.65 1004 1 2 N/A
2:59 pm 14:59 Cloudy 34 1 34 1 100 100 NNW 5 7 29.65 1004 1 2 N/A
3:20 pm 15:20 Cloudy 34 1 34 1 100 100 NNW 8 13 29.68 1005 2 2 N/A
3:39 pm 15:39 Cloudy 34 1 34 1 100 100 N 9 15 29.68 1005 3 4 N/A
3:59 pm 15:59 Cloudy 34 1 34 1 100 100 N 12 19 29.68 1005 2 3 N/A
4:20 pm 16:20 Cloudy 32 undefined 32 undefined 100 100 NNW 12 19 29.71 1006 2 3 N/A
4:40 pm 16:40 Cloudy 32 undefined 32 undefined 100 100 NNW 10 17 29.71 1006 2 3 N/A
4:59 pm 16:59 Cloudy 32 undefined 32 undefined 100 100 NNW 10 17 29.71 1006 3 5 N/A
5:19 pm 17:19 Cloudy 32 undefined 32 undefined 100 100 NNW 13 20 29.71 1006 3 5 N/A
5:40 pm 17:40 Cloudy 32 undefined 32 undefined 100 100 NNW 13 20 29.71 1006 3 4 N/A
5:59 pm 17:59 Cloudy 32 undefined 32 undefined 100 100 NNW 15 24 29.71 1006 4 6 N/A
6:19 pm 18:19 Cloudy 32 undefined 30 -1 93 93 N 12 19 29.77 1008 7 11 N/A
6:40 pm 18:40 Cloudy 32 undefined 30 -1 93 93 N 12 19 29.77 1008 5 8 N/A
6:59 pm 18:59 Cloudy 30 -1 30 -1 100 100 N 10 17 29.77 1008 7 11 N/A
7:19 pm 19:19 Cloudy 30 -1 30 -1 100 100 N 10 17 29.74 1007 7 11 N/A
7:39 pm 19:39 Cloudy 30 -1 30 -1 100 100 N 9 15 29.77 1008 10 16 N/A
7:59 pm 19:59 Cloudy 30 -1 28 -2 93 93 N 12 19 29.74 1007 10 16 N/A
8:20 pm 20:20 Cloudy 30 -1 28 -2 93 93 NNW 12 19 29.77 1008 10 16 N/A
8:39 pm 20:39 Cloudy 30 -1 28 -2 93 93 N 14 22 29.74 1007 10 16 N/A
8:59 pm 20:59 Cloudy 30 -1 28 -2 93 93 N 12 19 29.74 1007 7 11 N/A
9:20 pm 21:20 Cloudy 30 -1 28 -2 93 93 NNW 13 20 29.77 1008 5 8 N/A
9:39 pm 21:39 Cloudy 30 -1 28 -2 93 93 NNW 9 15 29.77 1008 7 11 N/A
9:59 pm 21:59 Cloudy 30 -1 28 -2 93 93 N 12 19 29.77 1008 10 16 N/A
10:20 pm 22:20 Cloudy 30 -1 28 -2 93 93 NW 12 19 29.80 1009 4 6 N/A
10:39 pm 22:39 Cloudy 28 -2 28 -2 100 100 NNW 12 19 29.80 1009 2 3 N/A
10:59 pm 22:59 Cloudy 28 -2 27 -3 93 93 NW 10 17 29.77 1008 2 2 N/A
11:20 pm 23:20 Cloudy 27 -3 27 -3 100 100 NW 14 22 29.80 1009 4 6 N/A
11:39 pm 23:39 Cloudy 27 -3 27 -3 100 100 NNW 14 22 29.83 1010 3 5 N/A
11:59 pm 23:59 Cloudy 27 -3 25 -4 93 93 NW 15 24 29.83 1010 4 6 N/A

Powered by AerisWeather